Tabellarische Ansicht des 17.11.2009


Die einzelnen Werte des Tages

Uhrzeit Temperatur Luftdruck Luftfeuchte Wind Hi-Wind Taupunkt THW Index Wind Chill Heat Index Solar- strahlung Regen

00:00

10.5 C

1006.6 hpa

78 %

8.0 km/h aus 117

12.9 km/h aus SSW

6.8 C

9.5 C

9.6 C

10.4 C

0 W/m

0.00 mm

00:05

10.4 C

1006.6 hpa

78 %

9.7 km/h aus 116

17.7 km/h aus SSW

6.8 C

9.2 C

9.3 C

10.3 C

0 W/m

0.00 mm

00:10

10.3 C

1006.6 hpa

78 %

9.7 km/h aus 117

17.7 km/h aus SSW

6.7 C

9.1 C

9.1 C

10.3 C

0 W/m

0.00 mm

00:15

10.3 C

1006.9 hpa

78 %

9.7 km/h aus 117

14.5 km/h aus SSW

6.7 C

9.1 C

9.1 C

10.3 C

0 W/m

0.00 mm

00:20

10.3 C

1006.9 hpa

78 %

8.0 km/h aus 116

12.9 km/h aus SSW

6.6 C

9.3 C

9.3 C

10.2 C

0 W/m

0.00 mm

00:25

10.2 C

1006.9 hpa

78 %

11.3 km/h aus 117

17.7 km/h aus S

6.5 C

8.6 C

8.7 C

10.1 C

0 W/m

0.00 mm

00:30

10.1 C

1006.8 hpa

78 %

9.7 km/h aus 117

17.7 km/h aus S

6.4 C

8.7 C

8.8 C

10.0 C

0 W/m

0.00 mm

00:35

10.0 C

1006.8 hpa

78 %

11.3 km/h aus 118

17.7 km/h aus S

6.3 C

8.4 C

8.4 C

9.9 C

0 W/m

0.00 mm

00:40

9.9 C

1006.8 hpa

78 %

9.7 km/h aus 116

16.1 km/h aus S

6.2 C

8.6 C

8.6 C

9.8 C

0 W/m

0.00 mm

00:45

9.8 C

1006.9 hpa

79 %

9.7 km/h aus 117

16.1 km/h aus S

6.3 C

8.4 C

8.4 C

9.7 C

0 W/m

0.00 mm

00:50

9.7 C

1006.9 hpa

79 %

12.9 km/h aus 117

17.7 km/h aus S

6.3 C

7.7 C

7.7 C

9.7 C

0 W/m

0.00 mm

00:55

9.6 C

1006.9 hpa

79 %

11.3 km/h aus 117

17.7 km/h aus S

6.1 C

7.9 C

8.0 C

9.6 C

0 W/m

0.00 mm

01:00

9.6 C

1006.8 hpa

79 %

9.7 km/h aus 116

14.5 km/h aus S

6.1 C

8.1 C

8.2 C

9.5 C

0 W/m

0.00 mm

01:05

9.4 C

1006.8 hpa

80 %

8.0 km/h aus 117

16.1 km/h aus S

6.2 C

8.3 C

8.3 C

9.4 C

0 W/m

0.00 mm

01:10

9.4 C

1006.8 hpa

80 %

8.0 km/h aus 117

14.5 km/h aus S

6.1 C

8.2 C

8.3 C

9.3 C

0 W/m

0.00 mm

01:15

9.4 C

1007.1 hpa

81 %

8.0 km/h aus 117

16.1 km/h aus SSW

6.3 C

8.2 C

8.3 C

9.3 C

0 W/m

0.00 mm

01:20

9.4 C

1007.1 hpa

81 %

8.0 km/h aus 116

16.1 km/h aus SSW

6.3 C

8.3 C

8.3 C

9.4 C

0 W/m

0.00 mm

01:25

9.4 C

1007.1 hpa

80 %

8.0 km/h aus 117

9.7 km/h aus SSW

6.1 C

8.2 C

8.3 C

9.3 C

0 W/m

0.00 mm

01:30

9.3 C

1006.9 hpa

80 %

9.7 km/h aus 117

11.3 km/h aus SSW

6.1 C

7.9 C

7.9 C

9.3 C

0 W/m

0.00 mm

01:35

9.3 C

1006.9 hpa

80 %

8.0 km/h aus 118

11.3 km/h aus SSW

6.0 C

8.1 C

8.2 C

9.2 C

0 W/m

0.00 mm

01:40

9.2 C

1006.9 hpa

80 %

9.7 km/h aus 117

14.5 km/h aus SSW

5.9 C

7.7 C

7.8 C

9.2 C

0 W/m

0.00 mm

01:45

9.2 C

1007.1 hpa

81 %

8.0 km/h aus 117

12.9 km/h aus S

6.1 C

8.0 C

8.1 C

9.1 C

0 W/m

0.00 mm

01:50

9.1 C

1007.1 hpa

81 %

8.0 km/h aus 116

11.3 km/h aus S

6.0 C

7.9 C

7.9 C

9.1 C

0 W/m

0.00 mm

01:55

9.1 C

1007.1 hpa

81 %

9.7 km/h aus 117

12.9 km/h aus S

6.0 C

7.6 C

7.6 C

9.0 C

0 W/m

0.00 mm

02:00

8.9 C

1007.0 hpa

81 %

9.7 km/h aus 117

14.5 km/h aus S

5.9 C

7.4 C

7.4 C

8.9 C

0 W/m

0.00 mm

02:05

8.9 C

1007.0 hpa

81 %

8.0 km/h aus 116

9.7 km/h aus S

5.8 C

7.7 C

7.7 C

8.8 C

0 W/m

0.00 mm

02:10

8.8 C

1007.0 hpa

82 %

6.4 km/h aus 117

8.0 km/h aus S

5.9 C

8.0 C

8.1 C

8.8 C

0 W/m

0.00 mm

02:15

8.8 C

1007.0 hpa

82 %

8.0 km/h aus 116

11.3 km/h aus S

5.9 C

7.6 C

7.6 C

8.7 C

0 W/m

0.00 mm

02:20

8.7 C

1007.0 hpa

82 %

8.0 km/h aus 116

11.3 km/h aus S

5.8 C

7.4 C

7.5 C

8.7 C

0 W/m

0.00 mm

02:25

8.7 C

1007.0 hpa

82 %

9.7 km/h aus 117

11.3 km/h aus S

5.8 C

7.1 C

7.1 C

8.6 C

0 W/m

0.00 mm

02:30

8.6 C

1006.6 hpa

83 %

11.3 km/h aus 115

17.7 km/h aus S

5.9 C

6.7 C

6.8 C

8.6 C

0 W/m

0.00 mm

02:35

8.6 C

1006.6 hpa

83 %

11.3 km/h aus 116

16.1 km/h aus S

5.8 C

6.7 C

6.7 C

8.5 C

0 W/m

0.00 mm

02:40

8.6 C

1006.6 hpa

84 %

11.3 km/h aus 116

20.9 km/h aus S

6.0 C

6.7 C

6.7 C

8.6 C

0 W/m

0.00 mm

02:45

8.6 C

1007.1 hpa

84 %

9.7 km/h aus 116

16.1 km/h aus S

6.1 C

7.1 C

7.1 C

8.6 C

0 W/m

0.00 mm

02:50

8.6 C

1007.1 hpa

84 %

9.7 km/h aus 116

11.3 km/h aus S

6.1 C

7.1 C

7.1 C

8.6 C

0 W/m

0.00 mm

02:55

8.7 C

1007.1 hpa

84 %

11.3 km/h aus 116

14.5 km/h aus S

6.1 C

6.8 C

6.8 C

8.7 C

0 W/m

0.00 mm

03:00

8.7 C

1006.7 hpa

84 %

11.3 km/h aus 117

16.1 km/h aus S

6.1 C

6.8 C

6.8 C

8.7 C

0 W/m

0.00 mm

03:05

8.7 C

1006.7 hpa

84 %

11.3 km/h aus 117

16.1 km/h aus S

6.1 C

6.8 C

6.8 C

8.7 C

0 W/m

0.00 mm

03:10

8.7 C

1006.7 hpa

84 %

9.7 km/h aus 117

14.5 km/h aus S

6.1 C

7.1 C

7.1 C

8.7 C

0 W/m

0.00 mm

03:15

8.7 C

1006.7 hpa

85 %

6.4 km/h aus 116

9.7 km/h aus S

6.3 C

7.8 C

7.8 C

8.7 C

0 W/m

0.00 mm

03:20

8.7 C

1006.7 hpa

85 %

6.4 km/h aus 117

9.7 km/h aus S

6.3 C

7.9 C

7.9 C

8.7 C

0 W/m

0.00 mm

03:25

8.8 C

1006.7 hpa

85 %

9.7 km/h aus 117

16.1 km/h aus SSW

6.4 C

7.3 C

7.3 C

8.8 C

0 W/m

0.00 mm

03:30

8.8 C

1007.1 hpa

85 %

11.3 km/h aus 117

17.7 km/h aus S

6.4 C

7.1 C

7.1 C

8.8 C

0 W/m

0.00 mm

03:35

8.9 C

1007.1 hpa

85 %

12.9 km/h aus 115

17.7 km/h aus S

6.5 C

6.7 C

6.7 C

8.9 C

0 W/m

0.00 mm

03:40

8.9 C

1007.1 hpa

85 %

16.1 km/h aus 117

22.5 km/h aus S

6.6 C

6.2 C

6.2 C

8.9 C

0 W/m

0.00 mm

03:45

9.0 C

1006.9 hpa

85 %

14.5 km/h aus 118

19.3 km/h aus SSE

6.6 C

6.5 C

6.5 C

9.0 C

0 W/m

0.00 mm

03:50

9.1 C

1006.9 hpa

85 %

16.1 km/h aus 117

19.3 km/h aus S

6.7 C

6.3 C

6.3 C

9.1 C

0 W/m

0.00 mm

03:55

9.2 C

1006.9 hpa

85 %

12.9 km/h aus 116

20.9 km/h aus S

6.8 C

7.1 C

7.1 C

9.2 C

0 W/m

0.00 mm

04:00

9.3 C

1006.9 hpa

85 %

12.9 km/h aus 116

25.7 km/h aus S

6.9 C

7.2 C

7.2 C

9.3 C

0 W/m

0.00 mm

04:05

9.4 C

1006.9 hpa

85 %

12.9 km/h aus 117

25.7 km/h aus S

7.0 C

7.4 C

7.4 C

9.5 C

0 W/m

0.00 mm

04:10

9.6 C

1006.9 hpa

85 %

11.3 km/h aus 116

17.7 km/h aus SSW

7.2 C

8.1 C

8.0 C

9.7 C

0 W/m

0.00 mm

04:15

9.8 C

1006.8 hpa

84 %

11.3 km/h aus 117

17.7 km/h aus S

7.2 C

8.2 C

8.2 C

9.8 C

0 W/m

0.00 mm

04:20

9.9 C

1006.8 hpa

84 %

12.9 km/h aus 116

19.3 km/h aus S

7.3 C

8.0 C

7.9 C

9.9 C

0 W/m

0.00 mm

04:25

9.9 C

1006.8 hpa

84 %

14.5 km/h aus 116

20.9 km/h aus S

7.3 C

7.7 C

7.6 C

9.9 C

0 W/m

0.00 mm

04:30

9.9 C

1006.8 hpa

83 %

12.9 km/h aus 117

19.3 km/h aus S

7.1 C

8.0 C

7.9 C

9.9 C

0 W/m

0.00 mm

04:35

9.9 C

1006.8 hpa

83 %

9.7 km/h aus 117

16.1 km/h aus S

7.2 C

8.7 C

8.7 C

10.0 C

0 W/m

0.00 mm

04:40

9.9 C

1006.8 hpa

83 %

14.5 km/h aus 117

17.7 km/h aus S

7.1 C

7.7 C

7.6 C

9.9 C

0 W/m

0.00 mm

04:45

9.9 C

1007.0 hpa

83 %

14.5 km/h aus 118

17.7 km/h aus S

7.1 C

7.7 C

7.6 C

9.9 C

0 W/m

0.00 mm

04:50

9.9 C

1007.0 hpa

84 %

14.5 km/h aus 117

19.3 km/h aus S

7.3 C

7.7 C

7.6 C

9.9 C

0 W/m

0.00 mm

04:55

9.9 C

1007.0 hpa

84 %

14.5 km/h aus 117

19.3 km/h aus S

7.3 C

7.7 C

7.6 C

9.9 C

0 W/m

0.00 mm

05:00

9.9 C

1006.9 hpa

84 %

14.5 km/h aus 117

20.9 km/h aus S

7.3 C

7.7 C

7.6 C

9.9 C

0 W/m

0.00 mm

05:05

9.9 C

1006.9 hpa

84 %

12.9 km/h aus 117

16.1 km/h aus S

7.3 C

8.0 C

7.9 C

9.9 C

0 W/m

0.00 mm

05:10

9.9 C

1006.9 hpa

84 %

9.7 km/h aus 117

16.1 km/h aus S

7.3 C

8.7 C

8.6 C

9.9 C

0 W/m

0.00 mm

05:15

9.9 C

1006.6 hpa

84 %

14.5 km/h aus 116

17.7 km/h aus SSE

7.4 C

7.7 C

7.7 C

10.0 C

0 W/m

0.00 mm

05:20

9.9 C

1006.6 hpa

84 %

11.3 km/h aus 116

17.7 km/h aus S

7.4 C

8.4 C

8.4 C

10.0 C

0 W/m

0.00 mm

05:25

10.0 C

1006.6 hpa

84 %

11.3 km/h aus 115

19.3 km/h aus S

7.4 C

8.5 C

8.4 C

10.1 C

0 W/m

0.00 mm

05:30

10.1 C

1006.9 hpa

84 %

8.0 km/h aus 117

14.5 km/h aus SSW

7.5 C

9.2 C

9.1 C

10.2 C

0 W/m

0.00 mm

05:35

10.2 C

1006.9 hpa

83 %

6.4 km/h aus 117

11.3 km/h aus SW

7.5 C

9.6 C

9.6 C

10.2 C

0 W/m

0.00 mm

05:40

10.3 C

1006.9 hpa

83 %

9.7 km/h aus 117

16.1 km/h aus S

7.5 C

9.1 C

9.1 C

10.3 C

0 W/m

0.00 mm

05:45

10.3 C

1006.6 hpa

83 %

9.7 km/h aus 116

17.7 km/h aus S

7.6 C

9.1 C

9.1 C

10.3 C

0 W/m

0.00 mm

05:50

10.5 C

1006.6 hpa

82 %

11.3 km/h aus 118

20.9 km/h aus S

7.6 C

9.1 C

9.1 C

10.5 C

0 W/m

0.00 mm

05:55

10.7 C

1006.6 hpa

81 %

11.3 km/h aus 117

17.7 km/h aus SW

7.6 C

9.3 C

9.3 C

10.7 C

0 W/m

0.00 mm

06:00

10.8 C

1006.6 hpa

80 %

9.7 km/h aus 117

17.7 km/h aus SSW

7.5 C

9.7 C

9.7 C

10.8 C

0 W/m

0.00 mm

06:05

10.9 C

1006.6 hpa

79 %

9.7 km/h aus 117

14.5 km/h aus SSW

7.4 C

9.7 C

9.8 C

10.8 C

0 W/m

0.00 mm

06:10

11.0 C

1006.6 hpa

79 %

9.7 km/h aus 117

16.1 km/h aus SSW

7.5 C

9.8 C

9.9 C

10.9 C

0 W/m

0.00 mm

06:15

11.1 C

1007.1 hpa

78 %

9.7 km/h aus 116

17.7 km/h aus SSW

7.4 C

9.8 C

9.9 C

10.9 C

0 W/m

0.00 mm

06:20

11.1 C

1007.1 hpa

78 %

9.7 km/h aus 117

17.7 km/h aus SSW

7.4 C

9.8 C

9.9 C

10.9 C

0 W/m

0.00 mm

06:25

11.1 C

1007.1 hpa

78 %

11.3 km/h aus 117

17.7 km/h aus SSW

7.4 C

9.6 C

9.7 C

10.9 C

0 W/m

0.00 mm

06:30

11.1 C

1007.0 hpa

78 %

11.3 km/h aus 117

19.3 km/h aus S

7.4 C

9.6 C

9.8 C

10.9 C

0 W/m

0.00 mm

06:35

11.1 C

1007.0 hpa

77 %

12.9 km/h aus 117

20.9 km/h aus SSW

7.2 C

9.2 C

9.4 C

10.9 C

0 W/m

0.00 mm

06:40

11.1 C

1007.0 hpa

77 %

14.5 km/h aus 117

22.5 km/h aus SSW

7.2 C

8.8 C

9.0 C

10.9 C

0 W/m

0.00 mm

06:45

11.2 C

1007.0 hpa

77 %

12.9 km/h aus 117

19.3 km/h aus S

7.3 C

9.3 C

9.4 C

11.0 C

0 W/m

0.00 mm

06:50

11.2 C

1007.0 hpa

77 %

16.1 km/h aus 117

29.0 km/h aus S

7.3 C

8.6 C

8.7 C

11.0 C

0 W/m

0.00 mm

06:55

11.2 C

1007.0 hpa

76 %

12.9 km/h aus 118

20.9 km/h aus S

7.1 C

9.2 C

9.4 C

10.9 C

0 W/m

0.00 mm

07:00

11.2 C

1007.1 hpa

76 %

14.5 km/h aus 116

33.8 km/h aus SSW

7.1 C

8.9 C

9.1 C

11.0 C

0 W/m

0.00 mm

07:05

11.2 C

1007.1 hpa

76 %

12.9 km/h aus 117

19.3 km/h aus S

7.1 C

9.3 C

9.5 C

11.0 C

0 W/m

0.00 mm

07:10

11.2 C

1007.1 hpa

76 %

12.9 km/h aus 117

20.9 km/h aus S

7.1 C

9.3 C

9.5 C

11.0 C

0 W/m

0.00 mm

07:15

11.2 C

1007.0 hpa

76 %

16.1 km/h aus 116

22.5 km/h aus S

7.1 C

8.5 C

8.7 C

10.9 C

0 W/m

0.00 mm

07:20

11.1 C

1007.0 hpa

76 %

16.1 km/h aus 117

22.5 km/h aus S

7.0 C

8.4 C

8.7 C

10.9 C

0 W/m

0.00 mm

07:25

11.1 C

1007.0 hpa

77 %

14.5 km/h aus 116

22.5 km/h aus S

7.2 C

8.8 C

8.9 C

10.9 C

0 W/m

0.00 mm

07:30

10.9 C

1006.7 hpa

77 %

16.1 km/h aus 117

20.9 km/h aus S

7.1 C

8.3 C

8.5 C

10.8 C

0 W/m

0.00 mm

07:35

10.8 C

1006.7 hpa

77 %

14.5 km/h aus 117

19.3 km/h aus S

7.0 C

8.6 C

8.7 C

10.7 C

0 W/m

0.00 mm

07:40

10.7 C

1006.7 hpa

78 %

17.7 km/h aus 117

24.1 km/h aus S

7.0 C

7.8 C

7.9 C

10.6 C

0 W/m

0.00 mm

07:45

10.6 C

1006.8 hpa

78 %

17.7 km/h aus 117

20.9 km/h aus SSE

6.9 C

7.7 C

7.8 C

10.5 C

0 W/m

0.00 mm

07:50

10.5 C

1006.8 hpa

79 %

12.9 km/h aus 117

20.9 km/h aus S

7.0 C

8.6 C

8.7 C

10.4 C

0 W/m

0.00 mm

07:55

10.4 C

1006.8 hpa

79 %

12.9 km/h aus 118

17.7 km/h aus S

6.9 C

8.4 C

8.5 C

10.3 C

0 W/m

0.00 mm

08:00

10.3 C

1006.8 hpa

79 %

12.9 km/h aus 116

19.3 km/h aus S

6.8 C

8.4 C

8.4 C

10.3 C

0 W/m

0.00 mm

08:05

10.3 C

1006.8 hpa

80 %

12.9 km/h aus 116

20.9 km/h aus S

7.0 C

8.4 C

8.4 C

10.3 C

0 W/m

0.00 mm

08:10

10.2 C

1006.8 hpa

80 %

11.3 km/h aus 116

20.9 km/h aus S

6.9 C

8.7 C

8.7 C

10.2 C

0 W/m

0.00 mm

08:15

10.3 C

1007.0 hpa

81 %

12.9 km/h aus 117

20.9 km/h aus S

7.2 C

8.4 C

8.4 C

10.3 C

0 W/m

0.00 mm

08:20

10.3 C

1007.0 hpa

81 %

14.5 km/h aus 117

20.9 km/h aus S

7.2 C

8.1 C

8.1 C

10.3 C

0 W/m

0.00 mm

08:25

10.4 C

1007.0 hpa

81 %

14.5 km/h aus 117

22.5 km/h aus S

7.3 C

8.2 C

8.2 C

10.4 C

0 W/m

0.00 mm

08:30

10.4 C

1007.1 hpa

81 %

16.1 km/h aus 117

25.7 km/h aus S

7.3 C

7.9 C

7.9 C

10.4 C

0 W/m

0.00 mm

08:35

10.5 C

1007.1 hpa

80 %

16.1 km/h aus 116

20.9 km/h aus S

7.2 C

7.9 C

8.0 C

10.4 C

0 W/m

0.00 mm

08:40

10.6 C

1007.1 hpa

80 %

16.1 km/h aus 117

20.9 km/h aus S

7.2 C

8.0 C

8.1 C

10.5 C

0 W/m

0.00 mm

08:45

10.6 C

1006.8 hpa

81 %

14.5 km/h aus 116

20.9 km/h aus S

7.5 C

8.4 C

8.4 C

10.6 C

0 W/m

0.00 mm

08:50

10.6 C

1006.8 hpa

81 %

12.9 km/h aus 117

19.3 km/h aus S

7.5 C

8.7 C

8.8 C

10.6 C

0 W/m

0.00 mm

08:55

10.7 C

1006.8 hpa

81 %

11.3 km/h aus 116

17.7 km/h aus S

7.5 C

9.2 C

9.2 C

10.6 C

0 W/m

0.00 mm

09:00

10.7 C

1006.9 hpa

81 %

14.5 km/h aus 118

19.3 km/h aus SSE

7.6 C

8.5 C

8.6 C

10.7 C

0 W/m

0.00 mm

09:05

10.8 C

1006.9 hpa

81 %

14.5 km/h aus 117

19.3 km/h aus S

7.6 C

8.6 C

8.6 C

10.7 C

0 W/m

0.00 mm

09:10

10.8 C

1006.9 hpa

81 %

16.1 km/h aus 117

22.5 km/h aus S

7.6 C

8.2 C

8.3 C

10.7 C

0 W/m

0.00 mm

09:15

10.8 C

1007.1 hpa

81 %

17.7 km/h aus 117

25.7 km/h aus SSE

7.7 C

8.0 C

8.1 C

10.8 C

0 W/m

0.00 mm

09:20

10.9 C

1007.1 hpa

81 %

14.5 km/h aus 117

20.9 km/h aus SSW

7.8 C

8.7 C

8.8 C

10.8 C

0 W/m

0.00 mm

09:25

10.9 C

1007.1 hpa

81 %

12.9 km/h aus 116

19.3 km/h aus S

7.8 C

9.1 C

9.2 C

10.9 C

0 W/m

0.00 mm

09:30

10.9 C

1007.1 hpa

81 %

9.7 km/h aus 116

16.1 km/h aus S

7.8 C

9.8 C

9.8 C

10.9 C

0 W/m

0.00 mm

09:35

11.1 C

1007.1 hpa

81 %

9.7 km/h aus 117

17.7 km/h aus SSW

7.9 C

9.8 C

9.9 C

10.9 C

0 W/m

0.00 mm

09:40

11.1 C

1007.1 hpa

81 %

9.7 km/h aus 116

16.1 km/h aus SSW

7.9 C

9.8 C

9.9 C

10.9 C

0 W/m

0.00 mm

09:45

11.2 C

1007.2 hpa

80 %

6.4 km/h aus 117

12.9 km/h aus SW

7.8 C

10.6 C

10.7 C

11.1 C

0 W/m

0.00 mm

09:50

11.3 C

1007.2 hpa

80 %

11.3 km/h aus 117

20.9 km/h aus SW

8.0 C

9.9 C

10.1 C

11.2 C

0 W/m

0.00 mm

09:55

11.4 C

1007.2 hpa

79 %

9.7 km/h aus 116

19.3 km/h aus S

7.9 C

10.2 C

10.4 C

11.3 C

0 W/m

0.00 mm

10:00

11.6 C

1007.2 hpa

79 %

9.7 km/h aus 116

19.3 km/h aus SW

8.1 C

10.4 C

10.6 C

11.4 C

0 W/m

0.00 mm

10:05

11.7 C

1007.2 hpa

78 %

11.3 km/h aus 117

17.7 km/h aus S

8.0 C

10.2 C

10.4 C

11.4 C

0 W/m

0.00 mm

10:10

11.8 C

1007.2 hpa

78 %

11.3 km/h aus 117

20.9 km/h aus SSW

8.1 C

10.3 C

10.6 C

11.6 C

0 W/m

0.00 mm

10:15

11.8 C

1007.2 hpa

78 %

12.9 km/h aus 117

25.7 km/h aus SSW

8.1 C

10.1 C

10.3 C

11.6 C

0 W/m

0.00 mm

10:20

11.8 C

1007.2 hpa

78 %

14.5 km/h aus 117

25.7 km/h aus SSW

8.1 C

9.7 C

9.9 C

11.6 C

0 W/m

0.00 mm

10:25

11.9 C

1007.2 hpa

77 %

19.3 km/h aus 116

30.6 km/h aus SSW

8.0 C

8.8 C

9.0 C

11.7 C

0 W/m

0.00 mm

10:30

11.9 C

1007.1 hpa

77 %

16.1 km/h aus 116

27.4 km/h aus S

8.0 C

9.4 C

9.7 C

11.7 C

0 W/m

0.00 mm

10:35

12.0 C

1007.1 hpa

77 %

16.1 km/h aus 117

29.0 km/h aus S

8.1 C

9.5 C

9.7 C

11.8 C

0 W/m

0.00 mm

10:40

12.1 C

1007.1 hpa

76 %

19.3 km/h aus 116

35.4 km/h aus S

8.0 C

8.9 C

9.2 C

11.8 C

0 W/m

0.00 mm

10:45

12.1 C

1007.1 hpa

76 %

19.3 km/h aus 116

32.2 km/h aus S

8.0 C

8.9 C

9.2 C

11.8 C

0 W/m

0.00 mm

10:50

12.1 C

1007.1 hpa

77 %

17.7 km/h aus 117

25.7 km/h aus S

8.1 C

9.2 C

9.4 C

11.8 C

0 W/m

0.00 mm

10:55

12.1 C

1007.1 hpa

76 %

12.9 km/h aus 117

24.1 km/h aus S

8.0 C

10.3 C

10.6 C

11.8 C

0 W/m

0.00 mm

11:00

12.1 C

1007.1 hpa

76 %

14.5 km/h aus 117

29.0 km/h aus S

8.0 C

9.9 C

10.2 C

11.8 C

0 W/m

0.00 mm

11:05

12.1 C

1007.1 hpa

75 %

9.7 km/h aus 116

17.7 km/h aus S

7.8 C

10.9 C

11.2 C

11.8 C

0 W/m

0.00 mm

11:10

12.2 C

1007.1 hpa

74 %

9.7 km/h aus 117

19.3 km/h aus SSW

7.7 C

11.0 C

11.3 C

11.9 C

0 W/m

0.00 mm

11:15

12.2 C

1007.1 hpa

73 %

14.5 km/h aus 117

22.5 km/h aus S

7.5 C

9.9 C

10.3 C

11.8 C

0 W/m

0.00 mm

11:20

12.3 C

1007.1 hpa

73 %

14.5 km/h aus 117

22.5 km/h aus S

7.6 C

10.1 C

10.4 C

11.9 C

0 W/m

0.00 mm

11:25

12.4 C

1007.1 hpa

73 %

12.9 km/h aus 117

24.1 km/h aus S

7.7 C

10.6 C

10.9 C

12.1 C

0 W/m

0.00 mm

11:30

12.4 C

1006.9 hpa

74 %

11.3 km/h aus 117

19.3 km/h aus SSW

7.9 C

11.1 C

11.4 C

12.2 C

0 W/m

0.00 mm

11:35

12.5 C

1006.9 hpa

74 %

14.5 km/h aus 117

25.7 km/h aus SSW

8.0 C

10.4 C

10.7 C

12.2 C

0 W/m

0.00 mm

11:40

12.6 C

1006.9 hpa

74 %

11.3 km/h aus 117

19.3 km/h aus SSW

8.0 C

11.2 C

11.5 C

12.2 C

0 W/m

0.00 mm

11:45

12.6 C

1006.6 hpa

74 %

14.5 km/h aus 117

27.4 km/h aus S

8.1 C

10.4 C

10.8 C

12.3 C

0 W/m

0.00 mm

11:50

12.7 C

1006.6 hpa

73 %

17.7 km/h aus 116

27.4 km/h aus S

7.9 C

9.9 C

10.2 C

12.3 C

0 W/m

0.00 mm

11:55

12.7 C

1006.6 hpa

74 %

12.9 km/h aus 116

22.5 km/h aus S

8.2 C

11.0 C

11.3 C

12.4 C

0 W/m

0.00 mm

12:00

12.7 C

1006.6 hpa

72 %

16.1 km/h aus 116

25.7 km/h aus S

7.7 C

10.1 C

10.5 C

12.3 C

0 W/m

0.00 mm

12:05

12.7 C

1006.6 hpa

72 %

14.5 km/h aus 116

24.1 km/h aus SW

7.8 C

10.6 C

10.9 C

12.3 C

0 W/m

0.00 mm

12:10

12.7 C

1006.6 hpa

74 %

17.7 km/h aus 118

25.7 km/h aus S

8.1 C

9.9 C

10.2 C

12.3 C

0 W/m

0.00 mm

12:15

12.6 C

1006.6 hpa

73 %

19.3 km/h aus 117

30.6 km/h aus S

7.9 C

9.5 C

9.8 C

12.3 C

0 W/m

0.00 mm

12:20

12.6 C

1006.6 hpa

74 %

17.7 km/h aus 117

25.7 km/h aus S

8.1 C

9.8 C

10.1 C

12.3 C

0 W/m

0.00 mm

12:25

12.6 C

1006.6 hpa

73 %

17.7 km/h aus 117

27.4 km/h aus S

7.8 C

9.7 C

10.1 C

12.2 C

0 W/m

0.00 mm

12:30

12.6 C

1006.6 hpa

73 %

14.5 km/h aus 117

20.9 km/h aus SSW

7.8 C

10.4 C

10.7 C

12.2 C

0 W/m

0.00 mm

12:35

12.5 C

1006.6 hpa

72 %

17.7 km/h aus 117

37.0 km/h aus SSW

7.6 C

9.7 C

10.0 C

12.2 C

0 W/m

0.00 mm

12:40

12.5 C

1006.6 hpa

69 %

19.3 km/h aus 117

33.8 km/h aus SSW

7.0 C

9.3 C

9.7 C

12.1 C

0 W/m

0.00 mm

12:45

12.5 C

1006.6 hpa

70 %

20.9 km/h aus 117

29.0 km/h aus SSW

7.2 C

9.1 C

9.4 C

12.1 C

0 W/m

0.00 mm

12:50

12.4 C

1006.6 hpa

68 %

19.3 km/h aus 117

29.0 km/h aus S

6.7 C

9.2 C

9.6 C

12.0 C

0 W/m

0.00 mm

12:55

12.4 C

1006.6 hpa

68 %

16.1 km/h aus 117

24.1 km/h aus S

6.7 C

9.8 C

10.2 C

12.0 C

0 W/m

0.00 mm

13:00

12.4 C

1006.7 hpa

68 %

14.5 km/h aus 117

22.5 km/h aus S

6.7 C

10.2 C

10.6 C

12.0 C

0 W/m

0.00 mm

13:05

12.4 C

1006.7 hpa

68 %

17.7 km/h aus 116

30.6 km/h aus SSW

6.6 C

9.4 C

9.9 C

11.9 C

0 W/m

0.00 mm

13:10

12.4 C

1006.7 hpa

68 %

20.9 km/h aus 115

33.8 km/h aus S

6.6 C

8.9 C

9.3 C

11.9 C

0 W/m

0.00 mm

13:15

12.3 C

1006.6 hpa

68 %

17.7 km/h aus 118

35.4 km/h aus S

6.6 C

9.3 C

9.8 C

11.9 C

0 W/m

0.00 mm

13:20

12.3 C

1006.6 hpa

68 %

19.3 km/h aus 117

32.2 km/h aus S

6.6 C

9.1 C

9.5 C

11.9 C

0 W/m

0.00 mm

13:25

12.3 C

1006.6 hpa

68 %

17.7 km/h aus 117

25.7 km/h aus S

6.6 C

9.3 C

9.8 C

11.9 C

0 W/m

0.00 mm

13:30

12.2 C

1006.4 hpa

69 %

17.7 km/h aus 117

25.7 km/h aus S

6.7 C

9.2 C

9.7 C

11.8 C

0 W/m

0.00 mm

13:35

12.2 C

1006.4 hpa

70 %

17.7 km/h aus 114

27.4 km/h aus SSE

6.9 C

9.2 C

9.6 C

11.8 C

0 W/m

0.00 mm

13:40

12.2 C

1006.4 hpa

69 %

14.5 km/h aus 117

24.1 km/h aus S

6.6 C

9.8 C

10.3 C

11.7 C

0 W/m

0.00 mm

13:45

12.2 C

1006.5 hpa

69 %

14.5 km/h aus 117

20.9 km/h aus S

6.6 C

9.8 C

10.3 C

11.7 C

0 W/m

0.00 mm

13:50

12.2 C

1006.5 hpa

69 %

12.9 km/h aus 117

27.4 km/h aus S

6.6 C

10.2 C

10.7 C

11.7 C

0 W/m

0.00 mm

13:55

12.2 C

1006.5 hpa

69 %

11.3 km/h aus 117

24.1 km/h aus S

6.6 C

10.6 C

11.1 C

11.7 C

0 W/m

0.00 mm

14:00

12.1 C

1006.4 hpa

70 %

12.9 km/h aus 114

22.5 km/h aus SSW

6.8 C

10.2 C

10.6 C

11.7 C

0 W/m

0.00 mm

14:05

12.1 C

1006.4 hpa

70 %

16.1 km/h aus 117

25.7 km/h aus S

6.7 C

9.4 C

9.8 C

11.7 C

0 W/m

0.00 mm

14:10

12.1 C

1006.4 hpa

69 %

16.1 km/h aus 117

25.7 km/h aus S

6.5 C

9.3 C

9.8 C

11.6 C

0 W/m

0.00 mm

14:15

12.1 C

1006.5 hpa

69 %

14.5 km/h aus 118

30.6 km/h aus S

6.5 C

9.7 C

10.1 C

11.6 C

0 W/m

0.00 mm

14:20

12.1 C

1006.5 hpa

70 %

16.1 km/h aus 117

22.5 km/h aus S

6.7 C

9.4 C

9.8 C

11.7 C

0 W/m

0.00 mm

14:25

12.1 C

1006.5 hpa

70 %

14.5 km/h aus 117

25.7 km/h aus SSE

6.7 C

9.7 C

10.1 C

11.7 C

0 W/m

0.00 mm

14:30

12.1 C

1006.5 hpa

70 %

17.7 km/h aus 117

30.6 km/h aus S

6.7 C

9.1 C

9.4 C

11.7 C

0 W/m

0.00 mm

14:35

12.1 C

1006.5 hpa

69 %

14.5 km/h aus 117

24.1 km/h aus SW

6.6 C

9.8 C

10.2 C

11.7 C

0 W/m

0.00 mm

14:40

12.1 C

1006.5 hpa

69 %

12.9 km/h aus 117

25.7 km/h aus S

6.6 C

10.2 C

10.6 C

11.7 C

0 W/m

0.00 mm

14:45

12.1 C

1006.5 hpa

70 %

9.7 km/h aus 116

24.1 km/h aus S

6.8 C

10.8 C

11.2 C

11.7 C

0 W/m

0.00 mm

14:50

12.1 C

1006.5 hpa

70 %

11.3 km/h aus 117

19.3 km/h aus S

6.7 C

10.5 C

10.9 C

11.7 C

0 W/m

0.00 mm

14:55

12.1 C

1006.5 hpa

70 %

14.5 km/h aus 116

22.5 km/h aus S

6.7 C

9.7 C

10.1 C

11.7 C

0 W/m

0.00 mm

15:00

12.0 C

1006.6 hpa

70 %

16.1 km/h aus 117

25.7 km/h aus SSW

6.7 C

9.3 C

9.7 C

11.6 C

0 W/m

0.00 mm

15:05

12.0 C

1006.6 hpa

71 %

16.1 km/h aus 117

24.1 km/h aus SSW

6.9 C

9.3 C

9.7 C

11.6 C

0 W/m

0.00 mm

15:10

11.9 C

1006.6 hpa

71 %

14.5 km/h aus 117

22.5 km/h aus SW

6.8 C

9.6 C

10.0 C

11.6 C

0 W/m

0.00 mm

15:15

11.9 C

1006.6 hpa

71 %

16.1 km/h aus 117

27.4 km/h aus S

6.8 C

9.3 C

9.7 C

11.6 C

0 W/m

0.00 mm

15:20

11.9 C

1006.6 hpa

71 %

14.5 km/h aus 118

29.0 km/h aus S

6.8 C

9.6 C

9.9 C

11.5 C

0 W/m

0.00 mm

15:25

11.8 C

1006.6 hpa

71 %

14.5 km/h aus 116

22.5 km/h aus SSW

6.7 C

9.5 C

9.9 C

11.4 C

0 W/m

0.00 mm

15:30

11.8 C

1006.6 hpa

71 %

11.3 km/h aus 117

22.5 km/h aus SSW

6.7 C

10.3 C

10.7 C

11.4 C

0 W/m

0.00 mm

15:35

11.8 C

1006.6 hpa

71 %

16.1 km/h aus 116

29.0 km/h aus SSW

6.7 C

9.1 C

9.4 C

11.4 C

0 W/m

0.00 mm

15:40

11.7 C

1006.6 hpa

72 %

17.7 km/h aus 117

25.7 km/h aus S

6.8 C

8.7 C

9.1 C

11.4 C

0 W/m

0.00 mm

15:45

11.7 C

1006.5 hpa

72 %

17.7 km/h aus 117

29.0 km/h aus S

6.8 C

8.7 C

9.0 C

11.3 C

0 W/m

0.00 mm

15:50

11.6 C

1006.5 hpa

72 %

16.1 km/h aus 117

25.7 km/h aus S

6.7 C

8.9 C

9.3 C

11.3 C

0 W/m

0.00 mm

15:55

11.6 C

1006.5 hpa

73 %

12.9 km/h aus 117

19.3 km/h aus S

6.9 C

9.6 C

9.9 C

11.2 C

0 W/m

0.00 mm

16:00

11.5 C

1006.6 hpa

73 %

16.1 km/h aus 117

24.1 km/h aus SSW

6.8 C

8.8 C

9.1 C

11.2 C

0 W/m

0.00 mm

16:05

11.4 C

1006.6 hpa

73 %

9.7 km/h aus 117

17.7 km/h aus SSW

6.8 C

10.1 C

10.4 C

11.2 C

0 W/m

0.00 mm

16:10

11.4 C

1006.6 hpa

73 %

9.7 km/h aus 117

19.3 km/h aus SW

6.8 C

10.1 C

10.4 C

11.2 C

0 W/m

0.00 mm

16:15

11.4 C

1006.8 hpa

73 %

11.3 km/h aus 116

22.5 km/h aus SSW

6.7 C

9.8 C

10.1 C

11.1 C

0 W/m

0.00 mm

16:20

11.4 C

1006.8 hpa

73 %

9.7 km/h aus 117

17.7 km/h aus SSW

6.7 C

10.1 C

10.3 C

11.1 C

0 W/m

0.00 mm

16:25

11.3 C

1006.8 hpa

73 %

11.3 km/h aus 116

20.9 km/h aus S

6.7 C

9.8 C

10.1 C

11.1 C

0 W/m

0.00 mm

16:30

11.3 C

1007.1 hpa

73 %

9.7 km/h aus 117

19.3 km/h aus SSW

6.7 C

10.0 C

10.3 C

11.1 C

0 W/m

0.00 mm

16:35

11.3 C

1007.1 hpa

73 %

16.1 km/h aus 117

24.1 km/h aus SSW

6.7 C

8.7 C

8.9 C

11.1 C

0 W/m

0.00 mm

16:40

11.3 C

1007.1 hpa

74 %

12.9 km/h aus 116

22.5 km/h aus S

6.8 C

9.3 C

9.6 C

11.0 C

0 W/m

0.00 mm

16:45

11.3 C

1007.3 hpa

74 %

12.9 km/h aus 116

22.5 km/h aus SSW

6.8 C

9.3 C

9.6 C

11.0 C

0 W/m

0.00 mm

16:50

11.2 C

1007.3 hpa

74 %

11.3 km/h aus 115

20.9 km/h aus SW

6.8 C

9.6 C

9.9 C

10.9 C

0 W/m

0.00 mm

16:55

11.2 C

1007.3 hpa

74 %

14.5 km/h aus 117

24.1 km/h aus S

6.8 C

8.8 C

9.1 C

10.9 C

0 W/m

0.00 mm

17:00

11.2 C

1007.4 hpa

74 %

14.5 km/h aus 116

22.5 km/h aus SSW

6.7 C

8.8 C

9.1 C

10.9 C

0 W/m

0.00 mm

17:05

11.2 C

1007.4 hpa

74 %

9.7 km/h aus 117

16.1 km/h aus SW

6.7 C

9.8 C

10.1 C

10.9 C

0 W/m

0.00 mm

17:10

11.2 C

1007.4 hpa

74 %

11.3 km/h aus 117

22.5 km/h aus SSW

6.7 C

9.6 C

9.8 C

10.9 C

0 W/m

0.00 mm

17:15

11.1 C

1007.6 hpa

75 %

12.9 km/h aus 117

24.1 km/h aus SSW

6.8 C

9.2 C

9.4 C

10.9 C

0 W/m

0.00 mm

17:20

11.1 C

1007.6 hpa

75 %

16.1 km/h aus 116

27.4 km/h aus SSW

6.8 C

8.4 C

8.7 C

10.9 C

0 W/m

0.00 mm

17:25

11.1 C

1007.6 hpa

75 %

12.9 km/h aus 117

22.5 km/h aus S

6.8 C

9.2 C

9.4 C

10.9 C

0 W/m

0.00 mm

17:30

11.1 C

1007.7 hpa

75 %

16.1 km/h aus 116

29.0 km/h aus S

6.8 C

8.4 C

8.7 C

10.9 C

0 W/m

0.00 mm

17:35

11.1 C

1007.7 hpa

75 %

16.1 km/h aus 116

25.7 km/h aus SSW

6.8 C

8.4 C

8.7 C

10.9 C

0 W/m

0.00 mm

17:40

11.1 C

1007.7 hpa

75 %

12.9 km/h aus 116

24.1 km/h aus SSW

6.8 C

9.2 C

9.4 C

10.9 C

0 W/m

0.00 mm

17:45

11.1 C

1007.9 hpa

75 %

14.5 km/h aus 117

24.1 km/h aus SSW

6.8 C

8.7 C

8.9 C

10.8 C

0 W/m

0.00 mm

17:50

11.1 C

1007.9 hpa

75 %

11.3 km/h aus 117

24.1 km/h aus S

6.8 C

9.5 C

9.7 C

10.8 C

0 W/m

0.00 mm

17:55

11.1 C

1007.9 hpa

76 %

11.3 km/h aus 117

22.5 km/h aus SSW

7.0 C

9.6 C

9.7 C

10.9 C

0 W/m

0.00 mm

18:00

11.1 C

1008.1 hpa

76 %

12.9 km/h aus 117

22.5 km/h aus SSW

7.0 C

9.2 C

9.3 C

10.9 C

0 W/m

0.00 mm

18:05

11.1 C

1008.1 hpa

76 %

11.3 km/h aus 115

19.3 km/h aus SSW

7.0 C

9.6 C

9.7 C

10.9 C

0 W/m

0.00 mm

18:10

11.0 C

1008.1 hpa

76 %

11.3 km/h aus 117

19.3 km/h aus S

6.9 C

9.5 C

9.7 C

10.8 C

0 W/m

0.00 mm

18:15

11.0 C

1008.3 hpa

76 %

16.1 km/h aus 117

30.6 km/h aus SSW

6.9 C

8.4 C

8.6 C

10.8 C

0 W/m

0.00 mm

18:20

11.0 C

1008.3 hpa

76 %

11.3 km/h aus 116

20.9 km/h aus S

6.9 C

9.5 C

9.7 C

10.8 C

0 W/m

0.00 mm

18:25

11.0 C

1008.3 hpa

76 %

14.5 km/h aus 116

22.5 km/h aus SSW

6.9 C

8.7 C

8.9 C

10.8 C

0 W/m

0.00 mm

18:30

11.0 C

1008.3 hpa

76 %

16.1 km/h aus 118

25.7 km/h aus SSE

6.9 C

8.4 C

8.6 C

10.8 C

0 W/m

0.00 mm

18:35

11.0 C

1008.3 hpa

77 %

14.5 km/h aus 117

27.4 km/h aus SSW

7.1 C

8.7 C

8.9 C

10.8 C

0 W/m

0.00 mm

18:40

11.0 C

1008.3 hpa

77 %

14.5 km/h aus 117

24.1 km/h aus SSW

7.1 C

8.7 C

8.9 C

10.8 C

0 W/m

0.00 mm

18:45

11.0 C

1008.6 hpa

77 %

14.5 km/h aus 116

29.0 km/h aus SSW

7.1 C

8.7 C

8.9 C

10.8 C

0 W/m

0.00 mm

18:50

11.0 C

1008.6 hpa

77 %

12.9 km/h aus 116

22.5 km/h aus S

7.1 C

9.1 C

9.3 C

10.8 C

0 W/m

0.00 mm

18:55

11.0 C

1008.6 hpa

77 %

9.7 km/h aus 117

19.3 km/h aus SSW

7.1 C

9.7 C

9.9 C

10.8 C

0 W/m

0.00 mm

19:00

10.9 C

1008.6 hpa

77 %

16.1 km/h aus 117

29.0 km/h aus S

7.1 C

8.3 C

8.5 C

10.8 C

0 W/m

0.00 mm

19:05

10.9 C

1008.6 hpa

78 %

17.7 km/h aus 117

27.4 km/h aus S

7.3 C

8.1 C

8.2 C

10.8 C

0 W/m

0.00 mm

19:10

10.9 C

1008.6 hpa

78 %

17.7 km/h aus 117

30.6 km/h aus S

7.3 C

8.1 C

8.2 C

10.8 C

0 W/m

0.00 mm

19:15

10.9 C

1008.7 hpa

78 %

16.1 km/h aus 117

24.1 km/h aus S

7.3 C

8.4 C

8.5 C

10.8 C

0 W/m

0.00 mm

19:20

10.9 C

1008.7 hpa

78 %

14.5 km/h aus 116

27.4 km/h aus S

7.2 C

8.7 C

8.8 C

10.8 C

0 W/m

0.00 mm

19:25

10.8 C

1008.7 hpa

78 %

12.9 km/h aus 115

25.7 km/h aus S

7.1 C

8.9 C

9.1 C

10.7 C

0 W/m

0.00 mm

19:30

10.8 C

1008.8 hpa

78 %

17.7 km/h aus 117

29.0 km/h aus SSW

7.1 C

7.9 C

8.0 C

10.7 C

0 W/m

0.00 mm

19:35

10.7 C

1008.8 hpa

79 %

16.1 km/h aus 118

24.1 km/h aus S

7.2 C

8.1 C

8.2 C

10.6 C

0 W/m

0.00 mm

19:40

10.8 C

1008.8 hpa

79 %

9.7 km/h aus 117

17.7 km/h aus S

7.3 C

9.5 C

9.6 C

10.7 C

0 W/m

0.00 mm

19:45

10.7 C

1009.0 hpa

79 %

11.3 km/h aus 117

20.9 km/h aus S

7.2 C

9.2 C

9.3 C

10.6 C

0 W/m

0.00 mm

19:50

10.7 C

1009.0 hpa

79 %

14.5 km/h aus 116

24.1 km/h aus SSW

7.2 C

8.4 C

8.6 C

10.6 C

0 W/m

0.00 mm

19:55

10.8 C

1009.0 hpa

79 %

11.3 km/h aus 117

19.3 km/h aus SSW

7.3 C

9.3 C

9.4 C

10.7 C

0 W/m

0.00 mm

20:00

10.8 C

1009.2 hpa

79 %

17.7 km/h aus 117

29.0 km/h aus S

7.3 C

7.9 C

8.0 C

10.7 C

0 W/m

0.00 mm

20:05

10.8 C

1009.2 hpa

79 %

12.9 km/h aus 116

22.5 km/h aus S

7.3 C

8.9 C

9.0 C

10.7 C

0 W/m

0.00 mm

20:10

10.8 C

1009.2 hpa

79 %

14.5 km/h aus 117

27.4 km/h aus SSW

7.3 C

8.5 C

8.6 C

10.7 C

0 W/m

0.00 mm

20:15

10.8 C

1009.6 hpa

79 %

12.9 km/h aus 117

24.1 km/h aus SSE

7.3 C

8.9 C

9.0 C

10.7 C

0 W/m

0.00 mm

20:20

10.8 C

1009.6 hpa

79 %

11.3 km/h aus 116

25.7 km/h aus SSW

7.3 C

9.3 C

9.4 C

10.7 C

0 W/m

0.00 mm

20:25

10.8 C

1009.6 hpa

79 %

11.3 km/h aus 117

19.3 km/h aus S

7.3 C

9.3 C

9.4 C

10.7 C

0 W/m

0.00 mm

20:30

10.8 C

1009.8 hpa

79 %

9.7 km/h aus 117

16.1 km/h aus WSW

7.3 C

9.5 C

9.6 C

10.7 C

0 W/m

0.00 mm

20:35

10.8 C

1009.8 hpa

79 %

11.3 km/h aus 118

19.3 km/h aus SSW

7.3 C

9.3 C

9.4 C

10.7 C

0 W/m

0.00 mm

20:40

10.8 C

1009.8 hpa

80 %

12.9 km/h aus 117

22.5 km/h aus S

7.5 C

8.9 C

9.0 C

10.7 C

0 W/m

0.00 mm

20:45

10.8 C

1010.2 hpa

80 %

14.5 km/h aus 116

22.5 km/h aus SSW

7.5 C

8.6 C

8.6 C

10.7 C

0 W/m

0.00 mm

20:50

10.8 C

1010.2 hpa

80 %

11.3 km/h aus 117

19.3 km/h aus SSW

7.5 C

9.3 C

9.4 C

10.7 C

0 W/m

0.00 mm

20:55

10.8 C

1010.2 hpa

80 %

12.9 km/h aus 117

22.5 km/h aus SSW

7.5 C

9.0 C

9.1 C

10.8 C

0 W/m

0.00 mm

21:00

10.8 C

1010.3 hpa

80 %

14.5 km/h aus 116

29.0 km/h aus SW

7.5 C

8.7 C

8.7 C

10.8 C

0 W/m

0.00 mm

21:05

10.8 C

1010.3 hpa

80 %

17.7 km/h aus 117

27.4 km/h aus SW

7.5 C

8.0 C

8.1 C

10.8 C

0 W/m

0.00 mm

21:10

10.8 C

1010.3 hpa

80 %

12.9 km/h aus 116

25.7 km/h aus SW

7.5 C

9.0 C

9.1 C

10.8 C

0 W/m

0.00 mm

21:15

10.8 C

1010.3 hpa

80 %

14.5 km/h aus 117

24.1 km/h aus SSW

7.5 C

8.7 C

8.7 C

10.8 C

0 W/m

0.00 mm

21:20

10.8 C

1010.3 hpa

80 %

14.5 km/h aus 117

29.0 km/h aus S

7.5 C

8.7 C

8.7 C

10.8 C

0 W/m

0.00 mm

21:25

10.8 C

1010.3 hpa

80 %

14.5 km/h aus 116

22.5 km/h aus SSW

7.5 C

8.6 C

8.6 C

10.7 C

0 W/m

0.00 mm

21:30

10.8 C

1010.5 hpa

80 %

14.5 km/h aus 117

25.7 km/h aus S

7.5 C

8.6 C

8.6 C

10.7 C

0 W/m

0.00 mm

21:35

10.8 C

1010.5 hpa

81 %

12.9 km/h aus 117

22.5 km/h aus SSW

7.6 C

8.9 C

9.0 C

10.7 C

0 W/m

0.00 mm

21:40

10.7 C

1010.5 hpa

81 %

14.5 km/h aus 118

24.1 km/h aus S

7.6 C

8.5 C

8.6 C

10.7 C

0 W/m

0.00 mm

21:45

10.7 C

1010.7 hpa

81 %

16.1 km/h aus 116

24.1 km/h aus SSW

7.5 C

8.1 C

8.2 C

10.6 C

0 W/m

0.00 mm

21:50

10.6 C

1010.7 hpa

81 %

16.1 km/h aus 117

29.0 km/h aus SSW

7.5 C

8.1 C

8.1 C

10.6 C

0 W/m

0.00 mm

21:55

10.6 C

1010.7 hpa

81 %

14.5 km/h aus 117

22.5 km/h aus S

7.4 C

8.3 C

8.4 C

10.5 C

0 W/m

0.00 mm

22:00

10.5 C

1010.8 hpa

82 %

16.1 km/h aus 117

29.0 km/h aus SW

7.6 C

8.0 C

8.0 C

10.5 C

0 W/m

0.00 mm

22:05

10.5 C

1010.8 hpa

82 %

12.9 km/h aus 116

20.9 km/h aus SSW

7.6 C

8.7 C

8.7 C

10.5 C

0 W/m

0.00 mm

22:10

10.4 C

1010.8 hpa

82 %

14.5 km/h aus 117

29.0 km/h aus SSW

7.5 C

8.3 C

8.3 C

10.4 C

0 W/m

0.00 mm

22:15

10.4 C

1011.1 hpa

82 %

14.5 km/h aus 117

25.7 km/h aus SSW

7.5 C

8.3 C

8.3 C

10.4 C

0 W/m

0.00 mm

22:20

10.4 C

1011.1 hpa

82 %

16.1 km/h aus 117

25.7 km/h aus SSW

7.5 C

7.9 C

7.9 C

10.4 C

0 W/m

0.00 mm

22:25

10.4 C

1011.1 hpa

82 %

12.9 km/h aus 117

25.7 km/h aus SSW

7.5 C

8.6 C

8.6 C

10.4 C

0 W/m

0.00 mm

22:30

10.5 C

1011.3 hpa

82 %

12.9 km/h aus 116

29.0 km/h aus WSW

7.6 C

8.7 C

8.7 C

10.5 C

0 W/m

0.00 mm

22:35

10.6 C

1011.3 hpa

82 %

17.7 km/h aus 117

29.0 km/h aus SW

7.6 C

7.7 C

7.7 C

10.5 C

0 W/m

0.00 mm

22:40

10.6 C

1011.3 hpa

82 %

16.1 km/h aus 117

25.7 km/h aus SSW

7.6 C

8.0 C

8.1 C

10.5 C

0 W/m

0.00 mm

22:45

10.6 C

1011.4 hpa

82 %

17.7 km/h aus 118

29.0 km/h aus SSW

7.6 C

7.7 C

7.7 C

10.5 C

0 W/m

0.00 mm

22:50

10.6 C

1011.4 hpa

82 %

20.9 km/h aus 117

33.8 km/h aus SSW

7.6 C

7.2 C

7.2 C

10.5 C

0 W/m

0.00 mm

22:55

10.6 C

1011.4 hpa

82 %

16.1 km/h aus 117

24.1 km/h aus SW

7.6 C

8.0 C

8.1 C

10.5 C

0 W/m

0.00 mm

23:00

10.6 C

1011.8 hpa

82 %

14.5 km/h aus 117

25.7 km/h aus SSW

7.6 C

8.3 C

8.4 C

10.5 C

0 W/m

0.00 mm

23:05

10.5 C

1011.8 hpa

82 %

19.3 km/h aus 117

32.2 km/h aus SSW

7.6 C

7.4 C

7.4 C

10.5 C

0 W/m

0.00 mm

23:10

10.4 C

1011.8 hpa

82 %

19.3 km/h aus 117

29.0 km/h aus SW

7.5 C

7.3 C

7.3 C

10.4 C

0 W/m

0.00 mm

23:15

10.4 C

1011.8 hpa

82 %

20.9 km/h aus 117

32.2 km/h aus SSW

7.5 C

7.1 C

7.1 C

10.4 C

0 W/m

0.00 mm

23:20

10.4 C

1011.8 hpa

82 %

20.9 km/h aus 117

32.2 km/h aus SSW

7.5 C

7.1 C

7.1 C

10.4 C

0 W/m

0.00 mm

23:25

10.4 C

1011.8 hpa

82 %

17.7 km/h aus 117

29.0 km/h aus SSW

7.4 C

7.6 C

7.6 C

10.4 C

0 W/m

0.00 mm

23:30

10.3 C

1011.9 hpa

82 %

16.1 km/h aus 117

25.7 km/h aus SW

7.4 C

7.8 C

7.8 C

10.3 C

0 W/m

0.00 mm

23:35

10.3 C

1011.9 hpa

82 %

17.7 km/h aus 117

33.8 km/h aus SSW

7.3 C

7.4 C

7.4 C

10.3 C

0 W/m

0.00 mm

23:40

10.3 C

1011.9 hpa

83 %

16.1 km/h aus 116

33.8 km/h aus SSW

7.5 C

7.7 C

7.7 C

10.3 C

0 W/m

0.00 mm

23:45

10.2 C

1012.1 hpa

83 %

17.7 km/h aus 118

33.8 km/h aus SSW

7.5 C

7.3 C

7.3 C

10.2 C

0 W/m

0.00 mm

23:50

10.2 C

1012.1 hpa

83 %

17.7 km/h aus 117

32.2 km/h aus S

7.4 C

7.3 C

7.3 C

10.2 C

0 W/m

0.00 mm

23:55

10.2 C

1012.1 hpa

83 %

16.1 km/h aus 116

29.0 km/h aus SSW

7.4 C

7.6 C

7.6 C

10.2 C

0 W/m

0.00 mm